INTELSAT 15 (IS-15)

Last updated on Sun Jun 21 2026 00:03:04 GMT+0000 (Coordinated Universal Time)

1 36106U 09067A 26171.40883872 -.00000190 00000+0 00000+0 0 9994 2 36106 0.0170 354.0226 0002207 95.9991 50.9258 1.00272124 41262
UTC large
Height (km)
Speed (km/s)
/
Latitude / Longitude
Inclination (degrees)
Orbital Period (minutes)
Azimuth
Elevation
Range (km)
Doppler Factor

Next 0 passes for location: London (51.5072 / 0.1276)

No passes found over London.
INTELSAT 15 (IS-15)